Wind_Speed
27 28 28 28 28 29 30 31 32 33 34 35 35 35 34 36 37 37 38 38 39 40 40 40 40 40 40 40 40 40 40 41 43 44 44 44 45 45 46 46 46 46 46 46
27 28 28 28 29 29 30 31 32 32 33 33 34 35 35 35 36 37 38 39 39 40 40 41 41 41 41 41 42 41 42 42 43 44 45 45 45 46 46 47 46 46 46 46
26 26 27 27 28 29 29 30 31 32 32 32 33 34 34 35 36 37 37 38 39 40 40 41 41 42 42 42 42 43 43 43 43 44 44 44 45 46 46 46 46 46 46 46
27 26 26 27 28 28 29 30 31 32 32 32 32 33 31 33 34 35 35 36 37 38 39 40 41 41 42 42 43 43 43 43 44 44 44 45 45 45 45 45 46 46 46 47
26 26 27 27 28 29 29 29 30 31 32 32 32 34 32 31 32 33 34 35 36 37 38 39 40 41 42 42 43 43 43 43 44 44 44 44 45 46 46 46 46 46 47 47
27 27 27 27 27 28 29 30 30 31 32 32 31 33 32 31 31 31 32 33 34 35 36 37 38 39 41 42 42 42 43 43 44 44 44 45 44 45 46 47 47 47 48 48
28 28 27 27 27 27 28 28 29 29 30 30 29 30 31 29 30 30 30 31 32 33 34 35 36 36 37 38 39 40 41 42 43 43 44 44 44 45 45 46 47 48 48 49
26 26 26 27 27 27 27 28 28 28 28 27 27 28 28 27 28 29 29 29 30 31 33 34 34 34 35 35 36 37 38 40 40 41 42 43 44 44 45 45 46 47 48 49
25 25 24 25 25 26 26 26 26 27 27 27 27 27 27 26 26 27 28 29 29 30 32 33 33 33 33 34 35 36 37 38 39 39 40 41 42 43 44 44 45 46 48 49
25 25 24 24 24 24 24 24 24 25 26 27 27 26 26 25 25 26 26 27 27 28 29 30 31 31 32 33 34 35 35 36 37 37 38 39 40 41 42 43 44 45 46 47
24 25 25 24 24 23 23 24 25 26 26 26 27 26 26 26 26 26 26 27 27 28 29 29 30 31 32 32 33 34 35 35 35 36 38 39 40 41 41 42 43 43 44 46
24 25 25 24 24 24 24 24 25 26 26 26 27 27 26 27 26 26 26 27 27 28 29 29 30 31 32 33 33 34 34 35 35 36 37 38 39 40 41 41 42 43 43 44
24 25 25 25 25 24 24 24 24 25 27 27 27 27 26 27 27 27 27 27 28 29 29 29 30 30 31 32 33 33 34 34 35 36 36 38 39 39 40 40 41 41 42 42
25 25 25 25 25 25 24 24 25 26 27 27 27 26 27 27 28 28 28 28 28 28 28 29 29 29 30 31 31 32 32 33 34 35 35 36 37 38 38 39 39 40 41 42
26 26 26 26 26 27 26 26 26 27 28 28 27 27 26 27 28 29 29 28 28 28 28 28 29 28 29 30 30 30 31 31 32 32 33 33 34 35 36 37 38 40 41 41
27 27 27 26 26 27 27 26 27 27 28 28 28 26 26 27 28 28 28 28 28 28 28 28 28 28 28 28 28 28 28 29 29 30 31 32 33 33 34 36 37 38 39 39
27 28 28 28 27 28 28 26 27 27 27 28 28 26 27 27 28 27 27 27 27 28 28 27 27 27 27 27 27 27 27 28 28 29 30 31 32 33 34 35 35 36 37 37
27 27 28 29 29 29 28 27 27 27 28 28 28 27 27 27 27 28 27 27 27 27 27 27 26 26 27 26 26 27 28 28 28 29 29 30 31 32 33 34 34 34 35 35
26 26 27 28 29 29 27 26 26 27 27 27 28 27 27 27 27 27 27 27 27 27 26 26 26 26 27 27 27 28 28 28 28 28 29 30 30 31 31 32 32 32 33 33
25 26 27 27 28 28 25 25 26 26 26 26 27 27 27 27 27 26 27 27 27 27 26 26 27 27 26 27 27 28 28 28 28 28 29 29 29 29 29 29 29 29 30 30
24 26 26 26 27 27 25 25 25 25 25 25 25 26 26 26 27 27 27 27 27 26 26 26 26 26 26 26 27 27 27 28 28 28 28 27 27 27 27 27 27 27 27 27
24 25 26 26 27 26 25 24 24 25 24 24 24 24 25 25 25 26 27 27 26 26 26 25 25 26 26 26 26 26 27 27 26 26 25 25 25 25 25 25 25 26 26 26
24 23 24 25 26 26 25 25 25 24 24 24 24 24 24 24 24 25 26 26 26 25 25 25 25 25 25 25 25 25 25 25 24 24 24 24 23 23 23 23 24 25 25 24
23 23 24 25 25 26 26 25 25 25 24 24 24 24 24 24 25 25 25 25 25 25 25 24 24 24 24 24 24 23 23 22 22 22 22 22 22 22 22 22 23 23 23 23
22 22 23 23 23 24 25 26 25 25 24 24 24 24 24 25 25 25 25 25 25 25 24 24 24 23 23 22 22 22 21 21 21 21 20 21 21 21 22 22 23 23 23 23
21 22 22 22 22 23 23 24 25 25 24 24 24 23 24 24 24 24 24 23 23 24 23 23 23 22 21 21 20 19 19 19 19 19 20 21 21 21 21 21 22 23 23 22
Wind_Direction
258 257 257 259 259 260 260 261 262 261 261 261 260 260 260 259 258 258 258 258 258 258 258 259 259 260 262 262 263 263 262 260 260 260 260 261 261 261 262 263 264 265 266 267
260 259 260 259 260 260 260 261 263 263 263 263 263 262 262 261 260 260 260 260 260 259 259 259 260 260 261 262 263 263 262 261 261 261 261 261 261 262 263 264 265 265 266 266
263 262 260 260 261 261 261 261 262 263 263 263 263 263 262 261 262 262 261 261 261 260 260 260 261 261 262 262 262 263 263 263 263 263 262 262 262 262 263 264 264 265 266 266
264 265 263 261 262 262 262 263 262 262 263 263 264 265 263 264 264 264 264 264 264 263 263 262 262 263 263 263 262 262 262 263 263 263 263 262 262 263 263 263 264 265 265 266
267 267 265 263 263 263 263 263 263 263 264 264 265 267 266 266 266 266 266 266 267 267 266 265 264 265 264 263 263 263 262 262 262 263 263 264 264 264 264 263 264 265 265 266
265 266 265 264 263 263 263 263 264 264 265 265 266 268 268 268 269 269 268 268 268 268 268 267 266 266 266 265 264 264 263 263 263 263 264 264 265 265 264 264 265 265 266 267
264 263 263 263 263 263 263 264 265 266 266 268 268 268 270 270 270 271 271 270 269 268 268 268 267 267 267 266 265 264 264 263 263 263 264 264 265 266 266 266 266 266 267 267
266 264 263 263 264 266 265 265 266 268 269 270 269 270 271 271 271 271 272 272 271 270 269 269 269 268 267 266 265 265 265 264 264 264 264 265 266 267 268 269 268 268 268 269
267 266 265 265 264 265 266 264 265 267 269 270 271 272 272 273 272 272 273 274 274 273 271 270 269 268 267 267 267 267 267 266 265 266 266 267 268 268 269 270 271 270 269 270
267 267 265 264 263 263 265 266 265 267 270 271 272 274 276 276 276 275 276 276 276 274 273 271 270 269 268 268 268 269 269 268 268 268 268 268 268 269 271 271 272 273 272 271
267 266 264 263 262 264 264 265 266 267 269 272 275 277 279 280 280 280 279 278 277 276 276 275 272 271 271 270 271 271 271 270 270 270 269 269 270 271 271 272 273 273 273 272
268 267 264 263 264 263 264 266 267 267 268 271 274 277 279 281 282 282 282 281 280 279 279 277 276 274 273 273 273 273 272 271 271 272 271 271 272 272 272 273 273 274 275 274
267 267 266 264 263 262 264 266 267 268 268 270 274 278 280 281 283 283 283 283 281 281 279 278 276 274 274 274 274 273 273 273 273 273 273 273 273 273 273 274 274 275 276 277
267 266 266 266 265 264 264 264 267 268 269 272 275 278 280 280 281 282 283 283 282 281 280 279 277 276 276 275 274 275 275 274 274 275 275 275 274 274 274 274 276 277 278 279
266 266 266 266 265 264 264 265 267 269 271 273 275 277 279 279 280 280 281 282 282 281 281 281 279 277 277 277 276 276 276 276 276 277 276 276 276 276 276 277 278 279 281 281
265 266 266 265 265 265 266 266 268 270 273 274 275 275 277 279 281 281 282 282 281 280 281 281 281 279 278 277 277 278 277 278 278 279 278 278 278 278 279 280 281 282 282 283
266 267 267 266 265 265 267 269 271 272 272 274 275 276 276 278 281 281 281 281 282 281 281 281 281 279 278 277 278 278 279 279 280 281 281 280 281 282 282 283 284 284 284 284
265 266 267 268 266 267 270 272 273 273 274 275 276 276 277 278 280 281 281 282 282 282 280 281 281 279 279 279 279 280 280 281 282 283 283 283 284 285 286 286 286 287 286 286
264 265 266 268 268 268 269 272 274 274 274 275 275 275 276 278 279 281 282 282 282 281 281 281 281 281 281 280 280 280 281 282 284 284 285 285 286 287 288 288 288 288 289 288
264 264 266 268 270 271 272 272 274 275 275 274 274 275 276 278 278 279 280 282 283 281 281 281 281 282 281 281 281 281 282 283 285 286 286 287 288 289 290 290 290 291 292 291
265 264 264 266 268 270 272 274 276 276 277 276 276 277 277 278 279 279 280 282 284 283 283 282 281 280 281 282 282 283 283 284 285 286 287 289 289 290 291 293 294 295 295 296
267 267 265 265 267 269 271 272 274 277 276 276 277 278 278 278 278 279 280 282 283 283 283 283 283 282 282 283 284 284 285 285 285 285 286 287 289 290 293 295 297 298 298 298
264 266 267 266 268 269 269 270 273 274 275 275 276 277 279 278 278 280 281 282 283 283 283 283 283 284 284 284 285 286 286 286 286 286 285 285 288 291 295 297 300 301 301 300
263 265 266 267 268 269 268 269 271 273 274 274 275 277 278 278 279 281 281 281 283 284 284 282 283 284 285 286 287 287 287 286 285 283 283 285 288 292 296 298 301 304 304 302
263 266 268 268 269 270 270 270 271 272 273 273 275 277 278 278 280 281 281 281 282 282 282 280 280 282 284 286 288 288 288 286 285 283 284 286 288 291 295 299 301 304 305 304
265 268 271 272 271 272 271 270 270 271 272 274 276 279 279 279 279 280 280 281 281 281 282 280 279 280 282 284 285 287 289 288 287 286 287 289 290 294 297 299 302 304 306 307
Height
5680 5682 5683 5684 5685 5686 5686 5687 5687 5688 5689 5690 5691 5693 5694 5695 5696 5697 5698 5700 5702 5703 5705 5706 5707 5708 5709 5711 5712 5713 5714 5715 5716 5717 5719 5721 5722 5724 5725 5726 5727 5728 5729 5729
5674 5675 5676 5676 5677 5678 5678 5679 5680 5680 5681 5682 5682 5684 5686 5687 5687 5688 5689 5690 5692 5693 5695 5696 5697 5698 5700 5701 5702 5703 5704 5705 5706 5708 5709 5711 5712 5714 5715 5716 5717 5717 5718 5719
5667 5669 5669 5669 5670 5671 5671 5672 5672 5672 5673 5673 5674 5676 5678 5679 5679 5679 5680 5681 5682 5683 5685 5686 5687 5689 5690 5691 5692 5693 5694 5695 5697 5698 5699 5701 5702 5703 5704 5705 5706 5707 5707 5708
5660 5661 5662 5662 5663 5663 5664 5664 5664 5664 5665 5666 5667 5666 5670 5671 5671 5671 5672 5673 5673 5674 5675 5676 5677 5678 5680 5681 5682 5683 5684 5685 5686 5687 5689 5690 5691 5693 5694 5694 5695 5696 5696 5697
5653 5654 5654 5655 5656 5656 5656 5656 5657 5657 5657 5658 5659 5658 5662 5662 5662 5663 5663 5664 5664 5665 5665 5667 5667 5668 5669 5670 5671 5672 5673 5674 5676 5677 5678 5679 5681 5682 5682 5683 5684 5684 5685 5685
5647 5647 5647 5648 5649 5649 5649 5649 5649 5649 5649 5650 5652 5651 5652 5654 5654 5654 5655 5655 5655 5655 5656 5657 5657 5658 5658 5659 5660 5661 5662 5663 5665 5666 5667 5668 5669 5670 5671 5671 5672 5673 5673 5673
5639 5640 5640 5641 5641 5642 5642 5643 5642 5642 5642 5643 5645 5643 5645 5646 5646 5646 5647 5647 5647 5647 5647 5647 5648 5648 5649 5649 5650 5650 5651 5652 5653 5654 5655 5657 5658 5658 5659 5660 5660 5660 5661 5661
5631 5633 5634 5634 5635 5635 5635 5636 5637 5636 5636 5636 5637 5637 5639 5640 5639 5639 5639 5639 5639 5639 5638 5639 5639 5639 5640 5640 5640 5641 5641 5642 5643 5644 5645 5645 5646 5647 5647 5648 5648 5648 5648 5648
5625 5626 5628 5627 5628 5629 5629 5629 5630 5630 5630 5630 5630 5631 5632 5633 5632 5632 5632 5631 5631 5631 5630 5630 5630 5630 5631 5631 5631 5631 5632 5632 5633 5633 5634 5635 5635 5636 5636 5636 5636 5636 5636 5636
5619 5620 5621 5621 5622 5622 5623 5624 5624 5624 5623 5623 5624 5624 5626 5626 5626 5625 5625 5624 5623 5623 5622 5622 5622 5622 5622 5622 5622 5622 5623 5623 5623 5624 5624 5624 5625 5625 5625 5625 5624 5624 5623 5623
5613 5614 5615 5615 5616 5617 5618 5618 5618 5618 5618 5618 5617 5621 5620 5619 5619 5618 5618 5617 5616 5615 5615 5614 5614 5614 5613 5613 5613 5613 5613 5614 5614 5614 5614 5614 5614 5614 5614 5613 5613 5612 5612 5611
5607 5608 5608 5610 5610 5610 5611 5612 5612 5613 5612 5612 5612 5616 5614 5613 5612 5611 5611 5610 5609 5608 5607 5607 5606 5606 5605 5605 5605 5604 5604 5604 5604 5604 5604 5604 5604 5603 5603 5602 5601 5601 5600 5599
5601 5602 5602 5603 5606 5605 5605 5605 5606 5606 5606 5605 5606 5610 5607 5606 5605 5604 5604 5603 5602 5601 5600 5599 5598 5597 5597 5596 5596 5595 5595 5595 5595 5595 5594 5594 5593 5593 5592 5591 5590 5589 5588 5587
5595 5595 5597 5598 5597 5598 5598 5599 5599 5599 5599 5599 5600 5601 5601 5599 5598 5597 5596 5595 5594 5593 5592 5591 5590 5589 5588 5588 5587 5587 5587 5586 5586 5585 5585 5584 5583 5582 5581 5580 5579 5578 5576 5575
5588 5589 5590 5590 5590 5590 5591 5592 5592 5592 5592 5593 5594 5594 5594 5592 5591 5590 5589 5588 5587 5586 5585 5583 5582 5581 5580 5580 5579 5579 5578 5577 5577 5576 5575 5574 5573 5572 5571 5570 5568 5567 5565 5563
5581 5582 5582 5583 5584 5583 5584 5585 5585 5585 5586 5586 5586 5587 5586 5584 5583 5582 5582 5581 5580 5579 5577 5576 5575 5573 5572 5572 5571 5571 5570 5569 5568 5567 5566 5565 5564 5563 5561 5560 5558 5556 5554 5552
5574 5575 5575 5576 5577 5576 5577 5580 5579 5579 5579 5579 5579 5581 5578 5577 5576 5575 5574 5573 5572 5571 5570 5568 5567 5566 5565 5564 5563 5563 5562 5561 5560 5559 5558 5556 5555 5553 5552 5550 5548 5545 5543 5541
5567 5567 5567 5568 5569 5568 5574 5573 5572 5571 5572 5572 5571 5571 5571 5570 5569 5567 5567 5566 5565 5564 5562 5561 5560 5559 5558 5556 5556 5555 5554 5553 5552 5551 5549 5548 5546 5544 5542 5540 5538 5535 5532 5530
5559 5560 5560 5560 5560 5561 5565 5565 5564 5564 5565 5565 5564 5564 5563 5562 5561 5561 5559 5558 5557 5556 5555 5554 5553 5551 5550 5549 5548 5547 5546 5545 5544 5542 5541 5539 5537 5535 5533 5530 5528 5525 5522 5520
5552 5552 5553 5553 5552 5554 5558 5558 5556 5557 5557 5557 5556 5556 5555 5554 5554 5555 5552 5551 5550 5549 5548 5546 5545 5544 5543 5541 5540 5539 5538 5537 5536 5534 5532 5530 5528 5526 5524 5522 5519 5516 5513 5511
5544 5544 5545 5545 5545 5547 5550 5549 5549 5551 5552 5550 5549 5548 5548 5547 5547 5546 5545 5544 5542 5541 5540 5539 5537 5536 5535 5534 5533 5531 5530 5529 5528 5526 5524 5522 5520 5519 5516 5514 5511 5508 5505 5503
5537 5537 5538 5538 5539 5543 5542 5542 5543 5543 5542 5542 5541 5541 5540 5540 5539 5538 5537 5536 5535 5534 5533 5531 5530 5528 5527 5526 5525 5524 5522 5521 5519 5518 5517 5515 5513 5511 5509 5507 5504 5501 5498 5495
5530 5531 5531 5533 5535 5535 5534 5535 5535 5535 5535 5534 5534 5534 5533 5532 5532 5531 5530 5529 5528 5527 5525 5524 5523 5522 5520 5519 5517 5516 5514 5513 5511 5510 5509 5508 5507 5505 5503 5501 5498 5495 5491 5489
5524 5524 5524 5525 5527 5527 5527 5527 5527 5527 5527 5527 5527 5527 5526 5525 5524 5524 5523 5522 5520 5519 5518 5517 5516 5515 5513 5512 5510 5509 5507 5506 5505 5504 5503 5502 5500 5499 5497 5495 5492 5489 5486 5483
5518 5517 5517 5518 5520 5519 5520 5520 5520 5520 5520 5520 5520 5519 5518 5518 5517 5516 5515 5514 5513 5512 5511 5510 5509 5508 5507 5505 5504 5502 5501 5499 5498 5497 5496 5495 5494 5493 5491 5489 5486 5483 5480 5477
5511 5511 5512 5512 5513 5512 5513 5512 5512 5513 5513 5513 5513 5512 5511 5510 5509 5508 5507 5506 5505 5505 5504 5503 5502 5501 5500 5499 5497 5496 5495 5493 5492 5491 5490 5489 5488 5487 5485 5483 5480 5477 5474 5471